TimeEST,TemperatureF,Dew PointF,Humidity,Sea Level PressureIn,VisibilityMPH,Wind Direction,Wind SpeedMPH,Gust SpeedMPH,PrecipitationIn,Events,Conditions,WindDirDegrees,DateUTC
12:15 AM,48.2,39.2,71,30.11,10.0,SW,4.6,-,0.00,,Mostly Cloudy,230,2013-02-03 05:15:00
12:35 AM,48.2,39.2,71,30.10,10.0,SW,5.8,-,0.00,,Mostly Cloudy,230,2013-02-03 05:35:00
12:55 AM,46.4,39.2,76,30.09,10.0,Calm,Calm,-,0.00,,Partly Cloudy,0,2013-02-03 05:55:00
1:15 AM,46.4,39.2,76,30.08,10.0,Calm,Calm,-,0.00,,Partly Cloudy,0,2013-02-03 06:15:00
1:35 AM,46.4,37.4,71,30.08,10.0,Calm,Calm,-,0.00,,Mostly Cloudy,0,2013-02-03 06:35:00
1:55 AM,48.2,37.4,66,30.07,10.0,Calm,Calm,-,0.00,,Overcast,0,2013-02-03 06:55:00
2:15 AM,48.2,35.6,62,30.07,10.0,WSW,3.5,-,0.00,,Overcast,250,2013-02-03 07:15:00
2:35 AM,48.2,35.6,62,30.06,10.0,West,4.6,-,0.00,,Overcast,260,2013-02-03 07:35:00
2:55 AM,48.2,33.8,58,30.05,10.0,West,6.9,-,0.00,,Scattered Clouds,260,2013-02-03 07:55:00
3:15 AM,48.2,32.0,54,30.05,10.0,WSW,6.9,-,0.00,,Clear,250,2013-02-03 08:15:00
3:35 AM,46.4,32.0,57,30.04,10.0,Calm,Calm,-,0.00,,Clear,0,2013-02-03 08:35:00
3:55 AM,46.4,32.0,57,30.04,10.0,West,3.5,-,0.00,,Clear,260,2013-02-03 08:55:00
4:15 AM,46.4,32.0,57,30.03,10.0,West,8.1,-,0.00,,Clear,270,2013-02-03 09:15:00
4:35 AM,44.6,32.0,61,30.03,10.0,West,8.1,-,0.00,,Clear,270,2013-02-03 09:35:00
4:55 AM,46.4,30.2,53,30.03,9.0,West,8.1,-,0.00,,Clear,270,2013-02-03 09:55:00
5:15 AM,44.6,30.2,57,30.04,10.0,West,6.9,-,0.00,,Clear,280,2013-02-03 10:15:00
5:35 AM,46.4,30.2,53,30.05,10.0,West,5.8,-,0.00,,Partly Cloudy,270,2013-02-03 10:35:00
5:55 AM,44.6,30.2,57,30.05,10.0,West,10.4,-,0.00,,Partly Cloudy,270,2013-02-03 10:55:00
6:15 AM,46.4,32.0,57,30.05,10.0,West,12.7,17.3,0.00,,Clear,280,2013-02-03 11:15:00
6:35 AM,44.6,32.0,61,30.06,10.0,West,9.2,-,0.00,,Clear,270,2013-02-03 11:35:00
6:55 AM,44.6,33.8,66,30.06,10.0,West,9.2,-,0.00,,Clear,270,2013-02-03 11:55:00
7:15 AM,44.6,33.8,66,30.07,10.0,West,13.8,-,0.00,,Clear,270,2013-02-03 12:15:00
7:35 AM,44.6,33.8,66,30.07,10.0,West,11.5,-,0.00,,Clear,270,2013-02-03 12:35:00
7:55 AM,44.6,33.8,66,30.08,10.0,West,12.7,17.3,0.00,,Clear,270,2013-02-03 12:55:00
8:15 AM,46.4,33.8,62,30.08,10.0,West,13.8,21.9,0.00,,Clear,270,2013-02-03 13:15:00
8:35 AM,46.4,32.0,57,30.09,10.0,West,16.1,21.9,0.00,,Clear,270,2013-02-03 13:35:00
8:55 AM,48.2,32.0,54,30.09,10.0,West,18.4,23.0,0.00,,Clear,280,2013-02-03 13:55:00
9:15 AM,48.2,32.0,54,30.09,10.0,West,18.4,27.6,0.00,,Clear,280,2013-02-03 14:15:00
9:35 AM,48.2,32.0,54,30.09,10.0,West,17.3,23.0,0.00,,Clear,280,2013-02-03 14:35:00
9:55 AM,51.8,32.0,47,30.09,10.0,WNW,16.1,24.2,0.00,,Clear,300,2013-02-03 14:55:00
10:15 AM,51.8,30.2,44,30.09,10.0,West,19.6,24.2,0.00,,Clear,280,2013-02-03 15:15:00
10:35 AM,53.6,30.2,41,30.09,10.0,WNW,16.1,-,0.00,,Clear,300,2013-02-03 15:35:00
10:55 AM,53.6,30.2,41,30.08,10.0,West,19.6,24.2,0.00,,Clear,280,2013-02-03 15:55:00
11:15 AM,55.4,30.2,38,30.08,10.0,WNW,15.0,26.5,0.00,,Clear,290,2013-02-03 16:15:00
11:35 AM,55.4,28.4,36,30.07,10.0,West,15.0,27.6,0.00,,Clear,270,2013-02-03 16:35:00
12:15 PM,57.2,28.4,33,30.05,10.0,West,16.1,20.7,0.00,,Clear,280,2013-02-03 17:15:00
12:35 PM,57.2,28.4,33,30.03,10.0,West,17.3,28.8,0.00,,Clear,280,2013-02-03 17:35:00
12:55 PM,57.2,30.2,36,30.01,10.0,West,15.0,24.2,0.00,,Clear,260,2013-02-03 17:55:00
1:15 PM,60.8,30.2,31,30.00,10.0,WNW,17.3,23.0,0.00,,Clear,290,2013-02-03 18:15:00
1:35 PM,60.8,30.2,31,29.98,10.0,West,17.3,24.2,0.00,,Clear,280,2013-02-03 18:35:00
1:55 PM,60.8,30.2,31,29.98,10.0,WSW,17.3,-,0.00,,Clear,250,2013-02-03 18:55:00
2:15 PM,60.8,30.2,31,29.96,10.0,West,15.0,27.6,0.00,,Clear,260,2013-02-03 19:15:00
2:35 PM,60.8,30.2,31,29.96,10.0,WSW,17.3,25.3,0.00,,Clear,250,2013-02-03 19:35:00
2:55 PM,60.8,30.2,31,29.96,10.0,West,12.7,25.3,0.00,,Partly Cloudy,270,2013-02-03 19:55:00
3:15 PM,62.6,28.4,27,29.95,10.0,West,15.0,26.5,0.00,,Partly Cloudy,280,2013-02-03 20:15:00
3:35 PM,62.6,30.2,30,29.95,9.0,West,18.4,23.0,0.00,,Clear,260,2013-02-03 20:35:00
3:55 PM,62.6,30.2,30,29.95,10.0,West,10.4,18.4,0.00,,Clear,270,2013-02-03 20:55:00
4:15 PM,62.6,28.4,27,29.94,10.0,WSW,15.0,21.9,0.00,,Clear,250,2013-02-03 21:15:00
4:35 PM,62.6,28.4,27,29.94,10.0,West,9.2,17.3,0.00,,Clear,260,2013-02-03 21:35:00
5:15 PM,60.8,30.2,31,29.95,10.0,WSW,12.7,19.6,0.00,,Clear,250,2013-02-03 22:15:00
5:35 PM,60.8,30.2,31,29.95,10.0,West,4.6,-,0.00,,Clear,260,2013-02-03 22:35:00
5:55 PM,59.0,30.2,34,29.96,10.0,WSW,6.9,-,0.00,,Clear,240,2013-02-03 22:55:00
6:15 PM,57.2,30.2,36,29.96,10.0,WSW,5.8,-,0.00,,Clear,240,2013-02-03 23:15:00
6:35 PM,57.2,32.0,38,29.97,10.0,Calm,Calm,-,0.00,,Clear,0,2013-02-03 23:35:00
6:55 PM,55.4,32.0,41,29.97,10.0,WSW,4.6,-,0.00,,Clear,240,2013-02-03 23:55:00
7:15 PM,55.4,32.0,41,29.98,10.0,Calm,Calm,-,0.00,,Clear,0,2013-02-04 00:15:00
7:35 PM,53.6,32.0,44,29.98,10.0,WSW,5.8,-,0.00,,Clear,240,2013-02-04 00:35:00
7:55 PM,53.6,32.0,44,29.99,10.0,Calm,Calm,-,0.00,,Clear,0,2013-02-04 00:55:00
8:15 PM,51.8,32.0,47,30.00,10.0,Calm,Calm,-,0.00,,Clear,0,2013-02-04 01:15:00
8:35 PM,51.8,32.0,47,30.01,10.0,Calm,Calm,-,0.00,,Clear,0,2013-02-04 01:35:00
8:55 PM,50.0,32.0,50,30.01,10.0,Calm,Calm,-,0.00,,Clear,0,2013-02-04 01:55:00
9:15 PM,51.8,32.0,47,30.01,10.0,SW,5.8,-,0.00,,Clear,230,2013-02-04 02:15:00
9:35 PM,51.8,32.0,47,30.02,10.0,WSW,4.6,-,0.00,,Clear,240,2013-02-04 02:35:00
9:55 PM,48.2,32.0,54,30.03,10.0,West,4.6,-,0.00,,Clear,270,2013-02-04 02:55:00
10:15 PM,48.2,32.0,54,30.04,10.0,West,5.8,-,0.00,,Clear,280,2013-02-04 03:15:00
10:35 PM,46.4,32.0,57,30.05,10.0,Calm,Calm,-,0.00,,Clear,0,2013-02-04 03:35:00
10:55 PM,46.4,32.0,57,30.05,10.0,Calm,Calm,-,0.00,,Clear,0,2013-02-04 03:55:00
11:15 PM,44.6,32.0,61,30.06,10.0,Calm,Calm,-,0.00,,Clear,0,2013-02-04 04:15:00
11:35 PM,44.6,32.0,61,30.05,10.0,Calm,Calm,-,0.00,,Clear,0,2013-02-04 04:35:00